WetterOnline ( https://www.wetteronline.de )

Wetter aktuell Poiano

Aktuelles Wetter: Brescia-Ghedi (97m)

6-stündlich | Neueste Meldungen
Ortszeit Temperatur Wetter
Do, 18.07. 8:00 26.0° C leicht bewölkt
Do, 18.07. 2:00 24.2° C wolkenlos
Mi, 17.07. 20:00 32.0° C wolkenlos
Mi, 17.07. 14:00 31.2° C leicht bewölkt
Mi, 17.07. 8:00 24.0° C wolkenlos
Mi, 17.07. 2:00 24.2° C wolkenlos
Di, 16.07. 20:00 31.7° C leicht bewölkt
Di, 16.07. 14:00 30.5° C wolkenlos
Ortszeit Temperatur Wetter
Do, 18.07. 10:00 27.2° C leicht bewölkt
Do, 18.07. 9:00 27.1° C leicht bewölkt
Do, 18.07. 8:00 26.0° C leicht bewölkt
Do, 18.07. 7:00 24.9° C leicht bewölkt
Do, 18.07. 6:00 24.0° C leicht bewölkt
Do, 18.07. 5:00 24.4° C leicht bewölkt
Do, 18.07. 4:00 24.3° C leicht bewölkt
Ortszeit Relative Feuchte Sichtweite
Do, 18.07. 8:00 82% 10 km
Do, 18.07. 2:00 85% 20 km
Mi, 17.07. 20:00 57% 20 km
Mi, 17.07. 14:00 68% 20 km
Mi, 17.07. 8:00 95% 10 km
Mi, 17.07. 2:00 100% 10 km
Di, 16.07. 20:00 63% 20 km
Di, 16.07. 14:00 64% 20 km
Ortszeit Relative Feuchte Sichtweite
Do, 18.07. 10:00 80% 10 km
Do, 18.07. 9:00 78% 10 km
Do, 18.07. 8:00 82% 10 km
Do, 18.07. 7:00 86% 20 km
Do, 18.07. 6:00 89% 20 km
Do, 18.07. 5:00 85% 20 km
Do, 18.07. 4:00 86% 20 km
Ortszeit Niederschlagsmenge Niederschlagsart
Do, 18.07. 8:00 0.0 l/m2 in 12 Std. -
Do, 18.07. 2:00 0.0 l/m2 in 6 Std. -
Mi, 17.07. 20:00 0.0 l/m2 in 12 Std. -
Mi, 17.07. 14:00 0.0 l/m2 in 6 Std. -
Mi, 17.07. 8:00 0.0 l/m2 in 12 Std. -
Mi, 17.07. 2:00 0.0 l/m2 in 6 Std. -
Di, 16.07. 20:00 0.0 l/m2 in 12 Std. -
Di, 16.07. 14:00 0.0 l/m2 in 6 Std. -
Ortszeit Niederschlagsmenge Niederschlagsart
Do, 18.07. 10:00 keine Meldung -
Do, 18.07. 9:00 keine Meldung -
Do, 18.07. 8:00 keine Meldung -
Do, 18.07. 7:00 keine Meldung -
Do, 18.07. 6:00 keine Meldung -
Do, 18.07. 5:00 keine Meldung -
Do, 18.07. 4:00 keine Meldung -
Ortszeit Stärke Spitze Richtung
km/h Bft. km/h Grad Sektor
Do, 18.07. 8:00 6 1 - 310° NW
Do, 18.07. 2:00 6 1 - 60° NO
Mi, 17.07. 20:00 4 1 - 240° SW
Mi, 17.07. 14:00 11 2 - 130° SO
Mi, 17.07. 8:00 6 1 - 200° S
Mi, 17.07. 2:00 7 2 - 40° NO
Di, 16.07. 20:00 6 1 - 230° SW
Di, 16.07. 14:00 7 2 - 270° W
Ortszeit Stärke Spitze Richtung
km/h Bft. km/h Grad Sektor
Do, 18.07. 10:00 7 2 - 300° NW
Do, 18.07. 9:00 6 1 - 340° N
Do, 18.07. 8:00 6 1 - 310° NW
Do, 18.07. 7:00 2 1 - 180° S
Do, 18.07. 6:00 6 1 - 200° S
Do, 18.07. 5:00 4 1 - 350° N
Do, 18.07. 4:00 9 2 - 60° NO
Ortszeit Untergrenze Bedeckung Gattung
total tief tief mittel hoch
Do, 18.07. 8:00 1800 m 6/8 6/8 - Ac -
Do, 18.07. 2:00 - 0/8 0/8 - - -
Mi, 17.07. 20:00 - 0/8 0/8 - - -
Mi, 17.07. 14:00 1020 m 3/8 3/8 Cu - -
Mi, 17.07. 8:00 - 0/8 0/8 - - -
Mi, 17.07. 2:00 - 0/8 0/8 - - -
Di, 16.07. 20:00 6000 m 3/8 3/8 - - Ci
Di, 16.07. 14:00 - 0/8 0/8 - - -
Ortszeit Bedeckungsgrad in Achtel und Wolkenuntergrenze
Do, 18.07. 10:00 6(2400m)
Do, 18.07. 9:00 5(2100m)
Do, 18.07. 8:00 6(1800m)
Do, 18.07. 7:00 6(1800m)
Do, 18.07. 6:00 5(1800m)
Do, 18.07. 5:00 4(2400m)
Do, 18.07. 4:00 4
Ortszeit Luftdruck NN (hPa) Tendenz (hPa in 3 Std.)
Do, 18.07. 8:00 1017 + 1,7
Do, 18.07. 2:00 1015 + 0,3
Mi, 17.07. 20:00 1013 - 0,2
Mi, 17.07. 14:00 1014 - 0,2
Mi, 17.07. 8:00 1013 + 1,2
Mi, 17.07. 2:00 1011 + 0,1
Di, 16.07. 20:00 1010 - 0,5
Di, 16.07. 14:00 1011 - 0,6
Ortszeit Luftdruck NN (hPa) Tendenz (hPa in 3 Std.)
Do, 18.07. 10:00 1017 + 0,6
Do, 18.07. 9:00 1017 + 1,8
Do, 18.07. 8:00 1017 + 1,7
Do, 18.07. 7:00 1017 + 1,7
Do, 18.07. 6:00 1015 + 0,5
Do, 18.07. 5:00 1015 + 0,5
Do, 18.07. 4:00 1015 + 0,3
Ortszeit Schneehöhe (cm)
Do, 18.07. 8:00 0
Do, 18.07. 2:00 -
Mi, 17.07. 20:00 -
Mi, 17.07. 14:00 -
Mi, 17.07. 8:00 0
Mi, 17.07. 2:00 -
Di, 16.07. 20:00 -
Di, 16.07. 14:00 -
Ortszeit Schneehöhe (cm)
Do, 18.07. 10:00 -
Do, 18.07. 9:00 -
Do, 18.07. 8:00 0
Do, 18.07. 7:00 -
Do, 18.07. 6:00 -
Do, 18.07. 5:00 -
Do, 18.07. 4:00 -
Link zu dieser Seite / Seite empfehlen

Das Wetter in ...